When you browse on this site, cookies collect data to enhance your experience and personalize the content and advertising you see.
Visit our Privacy Policy to learn more. By continuing to use the site, you agree to this use of cookies and data.

Hourly Weather Natanja

Today, 12 July, Sunday

Time Temperature Precipitation Wind Pressure Humidity
00:00 +26°C° 0 mm 2 mps 750 mmHg 86%
01:00 +26°C° 0 mm 2 mps 749 mmHg 87%
02:00 +26°C° 0 mm 3 mps 749 mmHg 87%
03:00 +26°C° 0 mm 3 mps 749 mmHg 86%
04:00 +26°C° 0 mm 3 mps 749 mmHg 86%
05:00 +26°C° 0 mm 2 mps 749 mmHg 85%
06:00 +27°C° 0 mm 3 mps 749 mmHg 79%
07:00 +28°C° 0 mm 3 mps 749 mmHg 74%
08:00 +29°C° 0 mm 4 mps 749 mmHg 68%
09:00 +30°C° 0 mm 4 mps 749 mmHg 65%
10:00 +32°C° 0 mm 5 mps 749 mmHg 62%
11:00 +33°C° 0 mm 5 mps 749 mmHg 60%
12:00 +33°C° 0 mm 5 mps 749 mmHg 60%
13:00 +33°C° 0 mm 6 mps 749 mmHg 60%
14:00 +32°C° 0 mm 6 mps 748 mmHg 60%
15:00 +32°C° 0 mm 5 mps 748 mmHg 63%
16:00 +30°C° 0 mm 5 mps 748 mmHg 66%
17:00 +30°C° 0 mm 5 mps 748 mmHg 68%
18:00 +29°C° 0 mm 4 mps 748 mmHg 74%
19:00 +28°C° 0 mm 3 mps 748 mmHg 79%
20:00 +27°C° 0 mm 2 mps 748 mmHg 84%
21:00 +27°C° 0 mm 3 mps 748 mmHg 84%
22:00 +27°C° 0 mm 3 mps 748 mmHg 84%
23:00 +27°C° 0 mm 3 mps 748 mmHg 84%

Tomorrow, 13 July, Monday

Time Temperature Precipitation Wind Pressure Humidity
00:00 +27°C° 0 mm 3 mps 748 mmHg 82%
01:00 +27°C° 0 mm 3 mps 747 mmHg 81%
02:00 +27°C° 0 mm 3 mps 747 mmHg 80%
03:00 +27°C° 0 mm 3 mps 747 mmHg 79%
04:00 +27°C° 0 mm 3 mps 747 mmHg 78%
05:00 +27°C° 0 mm 3 mps 747 mmHg 78%
06:00 +28°C° 0 mm 3 mps 747 mmHg 74%
07:00 +29°C° 0 mm 3 mps 747 mmHg 70%
08:00 +29°C° 0 mm 3 mps 747 mmHg 66%
09:00 +30°C° 0 mm 4 mps 747 mmHg 63%
10:00 +32°C° 0 mm 4 mps 747 mmHg 60%
11:00 +33°C° 0 mm 5 mps 747 mmHg 58%
12:00 +33°C° 0 mm 5 mps 747 mmHg 59%
13:00 +33°C° 0 mm 5 mps 746 mmHg 60%
14:00 +33°C° 0 mm 5 mps 746 mmHg 61%
15:00 +32°C° 0 mm 5 mps 746 mmHg 63%
16:00 +30°C° 0 mm 5 mps 746 mmHg 66%
17:00 +30°C° 0 mm 4 mps 746 mmHg 69%
18:00 +29°C° 0 mm 3 mps 746 mmHg 74%
19:00 +28°C° 0 mm 3 mps 746 mmHg 78%
20:00 +27°C° 0 mm 2 mps 747 mmHg 83%
21:00 +26°C° 0 mm 1 mps 747 mmHg 84%
22:00 +26°C° 0 mm 1 mps 747 mmHg 84%
23:00 +26°C° 0 mm 1 mps 747 mmHg 84%

Day after tomorrow, 14 July, Tuesday

Time Temperature Precipitation Wind Pressure Humidity
00:00 +26°C° 0 mm 1 mps 747 mmHg 85%
01:00 +25°C° 0 mm 1 mps 747 mmHg 85%
02:00 +25°C° 0 mm 2 mps 747 mmHg 85%
03:00 +25°C° 0 mm 2 mps 747 mmHg 86%
04:00 +25°C° 0 mm 2 mps 747 mmHg 86%
05:00 +25°C° 0 mm 2 mps 748 mmHg 86%
06:00 +26°C° 0 mm 2 mps 748 mmHg 80%
07:00 +28°C° 0 mm 2 mps 748 mmHg 74%
08:00 +29°C° 0 mm 2 mps 748 mmHg 68%
09:00 +30°C° 0 mm 2 mps 748 mmHg 64%
10:00 +31°C° 0 mm 3 mps 748 mmHg 59%
11:00 +34°C° 0 mm 3 mps 748 mmHg 55%
12:00 +34°C° 0 mm 4 mps 748 mmHg 56%
13:00 +34°C° 0 mm 5 mps 748 mmHg 56%
14:00 +34°C° 0 mm 6 mps 748 mmHg 57%
15:00 +33°C° 0 mm 6 mps 748 mmHg 59%
16:00 +32°C° 0 mm 5 mps 748 mmHg 62%
17:00 +32°C° 0 mm 5 mps 748 mmHg 64%
18:00 +29°C° 0 mm 4 mps 748 mmHg 71%
19:00 +28°C° 0 mm 4 mps 748 mmHg 77%
20:00 +27°C° 0 mm 3 mps 749 mmHg 84%
21:00 +27°C° 0 mm 3 mps 749 mmHg 84%
22:00 +26°C° 0 mm 3 mps 749 mmHg 85%
23:00 +26°C° 0 mm 2 mps 749 mmHg 85%

15 July, Wednesday

Time Temperature Precipitation Wind Pressure Humidity
00:00 +26°C° 0 mm 2 mps 749 mmHg 85%
01:00 +26°C° 0 mm 2 mps 749 mmHg 84%
02:00 +25°C° 0 mm 1 mps 749 mmHg 84%
03:00 +25°C° 0 mm 1 mps 749 mmHg 83%
04:00 +26°C° 0 mm 1 mps 749 mmHg 83%
05:00 +26°C° 0 mm 1 mps 749 mmHg 83%
06:00 +27°C° 0 mm 1 mps 750 mmHg 77%
07:00 +29°C° 0 mm 2 mps 750 mmHg 71%
08:00 +30°C° 0 mm 2 mps 750 mmHg 65%
09:00 +31°C° 0 mm 3 mps 750 mmHg 62%
10:00 +33°C° 0 mm 3 mps 750 mmHg 59%
11:00 +34°C° 0 mm 4 mps 750 mmHg 56%
12:00 +34°C° 0 mm 4 mps 750 mmHg 56%
13:00 +34°C° 0 mm 5 mps 750 mmHg 55%
14:00 +34°C° 0 mm 5 mps 750 mmHg 55%
15:00 +34°C° 0 mm 5 mps 749 mmHg 58%
16:00 +33°C° 0 mm 6 mps 749 mmHg 61%
17:00 +33°C° 0 mm 6 mps 749 mmHg 64%
18:00 +30°C° 0 mm 5 mps 749 mmHg 70%
19:00 +29°C° 0 mm 5 mps 749 mmHg 75%
20:00 +28°C° 0 mm 4 mps 750 mmHg 81%
21:00 +28°C° 0 mm 3 mps 749 mmHg 82%
22:00 +27°C° 0 mm 3 mps 749 mmHg 84%
23:00 +27°C° 0 mm 2 mps 749 mmHg 85%

16 July, Thursday

Time Temperature Precipitation Wind Pressure Humidity
00:00 +27°C° 0 mm 2 mps 749 mmHg 85%
01:00 +26°C° 0 mm 1 mps 749 mmHg 85%
02:00 +26°C° 0 mm 1 mps 749 mmHg 85%
03:00 +26°C° 0 mm 1 mps 749 mmHg 86%
04:00 +26°C° 0 mm 2 mps 749 mmHg 86%
05:00 +26°C° 0 mm 2 mps 749 mmHg 86%
06:00 +28°C° 0 mm 3 mps 749 mmHg 80%
07:00 +29°C° 0 mm 3 mps 749 mmHg 74%
08:00 +30°C° 0 mm 3 mps 750 mmHg 68%
09:00 +31°C° 0 mm 3 mps 749 mmHg 65%
10:00 +33°C° 0 mm 4 mps 749 mmHg 61%
11:00 +33°C° 0 mm 4 mps 749 mmHg 58%
12:00 +33°C° 0 mm 5 mps 749 mmHg 58%
13:00 +33°C° 0 mm 5 mps 748 mmHg 58%
14:00 +33°C° 0 mm 6 mps 748 mmHg 58%
15:00 +32°C° 0 mm 5 mps 748 mmHg 61%
16:00 +32°C° 0 mm 5 mps 747 mmHg 63%
17:00 +30°C° 0 mm 5 mps 747 mmHg 65%
18:00 +29°C° 0 mm 4 mps 747 mmHg 71%
19:00 +28°C° 0 mm 4 mps 748 mmHg 77%
20:00 +27°C° 0 mm 3 mps 748 mmHg 84%
21:00 +27°C° 0 mm 3 mps 748 mmHg 83%
22:00 +26°C° 0 mm 2 mps 747 mmHg 82%
23:00 +26°C° 0 mm 2 mps 747 mmHg 81%

17 July, Friday

Time Temperature Precipitation Wind Pressure Humidity
00:00 +26°C° 0 mm 2 mps 747 mmHg 81%
01:00 +26°C° 0 mm 3 mps 747 mmHg 81%
02:00 +26°C° 0 mm 3 mps 747 mmHg 81%
03:00 +26°C° 0 mm 3 mps 747 mmHg 81%
04:00 +25°C° 0 mm 3 mps 747 mmHg 81%
05:00 +25°C° 0 mm 2 mps 748 mmHg 81%
06:00 +26°C° 0 mm 3 mps 748 mmHg 76%
07:00 +28°C° 0 mm 3 mps 748 mmHg 70%
08:00 +29°C° 0 mm 3 mps 748 mmHg 64%
09:00 +30°C° 0 mm 3 mps 748 mmHg 61%
10:00 +30°C° 0 mm 4 mps 748 mmHg 58%
11:00 +32°C° 0 mm 4 mps 748 mmHg 55%
12:00 +32°C° 0 mm 5 mps 747 mmHg 55%
13:00 +32°C° 0 mm 5 mps 747 mmHg 55%
14:00 +32°C° 0 mm 5 mps 747 mmHg 55%
15:00 +30°C° 0 mm 5 mps 747 mmHg 56%
16:00 +30°C° 0 mm 4 mps 747 mmHg 57%
17:00 +29°C° 0 mm 4 mps 747 mmHg 59%
18:00 +28°C° 0 mm 3 mps 747 mmHg 63%
19:00 +27°C° 0 mm 3 mps 747 mmHg 68%
20:00 +26°C° 0 mm 2 mps 747 mmHg 72%
21:00 +26°C° 0 mm 2 mps 748 mmHg 73%
22:00 +26°C° 0 mm 1 mps 748 mmHg 74%
23:00 +25°C° 0 mm 1 mps 748 mmHg 75%
Show more